sat.trackr.live / text

‹ back to catalog

STARLINK-35527

NORAD 66092 · 2025-236G

PAYLOAD ACTIVE UNKNOWN

§ Identity

Operator
Country
US
Launch date
2025-10-19
Launch site
AFWTR
Launch vehicle
Mass (kg)
RCS (m²)

Purposes: comms

External: N2YO · Heavens-Above · Gunter

§ Orbital elements

Epoch: 2026-05-25T03:46:51.873312Z

Period
93.85 min
Inclination
53.1609°
Eccentricity
0.0000866
Mean motion
15.34397908 rev/d
Perigee alt
462.1 km
Apogee alt
463.3 km
Semi-major
6,840.8 km
B*
6.1685e-4
RAAN
108.5881°
Arg perigee
52.4869°
Mean anomaly
307.6212°
Rev number
3,465

§ Raw data

STARLINK-355271 66092U 25236G   26145.15754483  .00020521  00000+0  61685-3 0  99942 66092  53.1609 108.5881 0000866  52.4869 307.6212 15.34397908 34652

JSON: /api/v1/satellites/66092 · /tle

For live sub-satellite position, see the globe view (requires WebGL).

§ Visibility from observer

Set your observer location to see the next 7 days of passes ≥ 10°. The values pass through the URL so the page stays shareable.

No JS? Fill the form by hand. The geolocation button needs JavaScript.